Location: St. Louis
(38.6270°N, 90.1994°W)
Time: 12:25:08
(UTC-06:00)

Tiros 1 despin weight - Visible Passes

Search period start: 30 November 2021 00:00
Search period end: 10 December 2021 00:00
Orbit: 593 x 641 km, 48.2° (Epoch: 29 November)

Date Brightness Start Highest point End Pass type
(mag) Time Alt. Az. Time Alt. Az. Time Alt. Az.
30 Nov ? 18:12:45 10° NW 18:16:34 28° NNE 18:17:05 27° NNE visible
30 Nov ? 19:54:07 10° NW 19:54:07 10° NW 19:54:07 10° NW visible
01 Dec ? 18:28:54 10° NW 18:32:43 36° N 18:32:43 36° N visible
02 Dec ? 17:03:31 10° NW 17:07:10 25° N 17:10:51 10° ENE visible
02 Dec ? 18:44:58 10° NW 18:48:26 47° NNW 18:48:26 47° NNW visible
03 Dec ? 17:19:44 10° NW 17:23:40 30° NNE 17:27:13 12° ENE visible
03 Dec ? 19:01:06 10° WNW 19:04:16 46° WNW 19:04:16 46° WNW visible
04 Dec ? 17:35:51 10° NW 17:40:03 43° NNE 17:43:13 17° E visible
04 Dec ? 19:17:24 10° WNW 19:20:18 33° W 19:20:18 33° W visible
05 Dec ? 17:51:55 10° NW 17:56:20 71° NNE 17:59:27 19° ESE visible
05 Dec ? 19:34:07 10° W 19:36:33 20° WSW 19:36:33 20° WSW visible
06 Dec ? 18:08:06 10° WNW 18:12:28 64° SW 18:16:00 15° SE visible
06 Dec ? 19:52:54 10° WSW 19:53:07 10° SW 19:53:07 10° SW visible
07 Dec ? 18:24:31 10° WNW 18:28:28 32° SW 18:32:25 10° SSE visible
08 Dec ? 16:58:53 10° WNW 17:03:18 88° NE 17:07:43 10° ESE visible
08 Dec ? 18:41:35 10° W 18:44:20 16° SW 18:47:05 10° S visible
09 Dec ? 17:15:07 10° WNW 17:19:22 49° SW 17:23:37 10° SE visible
